Other Public Products
Issued by NWS Charleston, SC

Current Version | Previous Version | Text Only | Print | Product List | Glossary On
Versions: 1 2 3 4 5 6 7 8 9 10 11 12 13 14 15 16 17 18 19 20 21 22 23 24 25 26 27 28 29 30 31 32 33 34 35 36 37 38 39 40 41 42 43 44 45 46 47 48 49 50
426 FPUS82 KCHS 301627 OPUCHS TEST...KCHS/KSAV Gateway Observations...TEST National Weather Service Charleston SC 1200 PM EDT SUN APR 30 2017 NOTE: "fair" indicates few or no clouds below 12,000 feet with no significant weather and/or obstructions to visibility. SCZ050-WAZ558-NCZ071-TXZ119-213-PAZ071-DCZ001-FLZ074-172-MI076- NYZ176-178-MAZ016-IL014-TNZ027-NJZ106-GAZ044-MD014-301700- ...Gateway Observations for Charleston International... CITY SKY/WX TMP DP RH WIND PRES REMARKS Chas Airport PTSUNNY 83 69 62 S21 30.19F Seattle CLOUDY 48 42 80 SW9 30.23R Charlotte PTSUNNY 77 64 64 SW15 30.20R Dallas DFW MOSUNNY 60 36 40 W24G35 29.81R Dallas Love MOSUNNY 58 35 42 W17G33 29.83S Philladelphia CLOUDY 68 46 45 E14 30.19S Wash National PTSUNNY 83 72 69 E3 30.10S Baltimore CLOUDY 71 61 70 E10 30.12F Miami PTSUNNY 84 69 60 E20G26 30.12S Detroit CLOUDY 50 45 83 E9 29.97F Newark CLOUDY 65 41 41 SE8G16 30.23R Laguardia PTSUNNY 65 42 43 NE9 30.23S J F K PTSUNNY 63 42 46 E24G33 30.24S Boston Logan MOSUNNY 49 36 61 E14 30.32R Ft. Lauderdale PTSUNNY 82 70 66 SE25 30.11F Chicago O`Hare CLOUDY 45 43 93 N10 29.82R FOG Chicago Midway LGT RAIN 47 46 97 N8 29.83R FOG Houston Bush CLOUDY 63 49 60 NW14 29.94R Houston Hobby CLOUDY 63 47 55 NW15 29.93R Nashville CLOUDY 79 66 64 SE23G29 29.94F Atlanta DRIZZLE 72 68 87 S8 30.13R $$ GAZ044-118-TXZ119-213-NCZ071-DCZ001-MDZ014-506-PAZ021-071-NJZ106- NYZ176-178-MAZ106-OHZ011-021-055-MIZ076-KYZ091-ILZ014-INZ047- MNZ060-ONZ431-301700- ...Gateway Observations for Savannah International... CITY SKY/WX TMP DP RH WIND PRES REMARKS Savannah Arpt PTSUNNY 85 67 54 S18G29 30.17S Atlanta DRIZZLE 72 68 87 S8 30.13R Charlotte PTSUNNY 77 64 64 SW15 30.20R Dallas DFW MOSUNNY 60 36 40 W24G35 29.81R Houston Bush CLOUDY 63 49 60 NW14 29.94R Wash National PTSUNNY 83 72 69 E3 30.10S Wash Dulles PTSUNNY 81 69 67 N5 30.10S Baltimore CLOUDY 71 61 70 E10 30.12F Philadelphia CLOUDY 68 46 45 E14 30.19S Newark CLOUDY 65 41 41 SE8G16 30.23R Laguardia PTSUNNY 65 42 43 NE9 30.23S J F K PTSUNNY 63 42 46 E24G33 30.24S Boston MOSUNNY 49 36 61 E14 30.32R Pittsburg CLOUDY 81 64 56 SW12 30.02F Akron CLOUDY 79 65 62 SW17 29.99S Cleveland CLOUDY 79 64 60 SW13G22 29.96F Cincinnati CLOUDY 76 65 68 S14G28 29.93R Columbus PTSUNNY 80 66 63 SW24G39 29.96R Detroit CLOUDY 50 45 83 E9 29.97F Chicago O`Hare CLOUDY 45 43 93 N10 29.82R FOG Minneapolis LGT RAIN 42 32 67 NE9 30.01S Indianapolis LGT RAIN 68 64 87 S17 29.85R Toronto Canada CLOUDY 41 30 65 E18G29 30.16F $$

USA.gov is the U.S. government's official web portal to all federal, state and local government web resources and services.